Tracking 27124 objects as of 31-Mar-2023
HD Live streaming from Space Station
objects crossing your sky now

COSMOS 249 DEB

Track COSMOS 249 DEB now!
10-day predictions


NORAD ID: 3923
Int'l Code: 1968-091BR
Perigee: 674.9 km
Apogee: 1,586.4 km
Inclination: 62.2 °
Period: 107.8 minutes
Semi major axis: 7501 km
RCS: 0.0428 m2 (small)
Launch date: October 20, 1968
Source: Commonwealth of Independent States (former USSR) (CIS)
Launch site: TYURATAM MISSILE AND SPACE COMPLEX (TTMTR)

Note: This is SATELLITE DEBRIS
Your satellite tracking list
Your tracking list is empty




NASA's NSSDC Master Catalog

Two Line Element Set (TLE):
1 03923U 68091BR  23089.74351342  .00001979  00000-0  13859-2 0  9996
2 03923  62.2383 325.7090 0607512 284.3435  69.0900 13.36189811559137
Source of the keplerian elements: AFSPC